When you browse on this site, cookies collect data to enhance your experience and personalize the content and advertising you see.
Visit our Privacy Policy to learn more. By continuing to use the site, you agree to this use of cookies and data.
  • In Belgien
  • Länderverzeichnis
  • Für 7 Tage
  • Wassertemperatur
  • Satellitenkarten
  • Wetterkarte
  • Widgets
  • user-avatar
    Anmelden

    Stündliche Wetter Batina

    Heute, 24 Januar, Donnerstag

    Zeit Temperatur Niederschläge Wind Luftdruck Luftfeuchtigkeit
    00:00 +2°C° 1.6 mm 6 m/S 655 mmHg 92%
    01:00 +2°C° 1.7 mm 7 m/S 654 mmHg 91%
    02:00 +2°C° 1.7 mm 7 m/S 654 mmHg 91%
    03:00 +1°C° 1.7 mm 8 m/S 654 mmHg 90%
    04:00 0°C° 0.7 mm 9 m/S 653 mmHg 90%
    05:00 0°C° 0.7 mm 9 m/S 653 mmHg 90%
    06:00 0°C° 0.7 mm 10 m/S 653 mmHg 90%
    07:00 -1°C° 0.9 mm 8 m/S 654 mmHg 90%
    08:00 -1°C° 0.9 mm 6 m/S 654 mmHg 90%
    09:00 -1°C° 0.9 mm 5 m/S 654 mmHg 91%
    10:00 -2°C° 0.3 mm 8 m/S 655 mmHg 85%
    11:00 -3°C° 0.3 mm 11 m/S 655 mmHg 79%
    12:00 -5°C° 0.3 mm 15 m/S 656 mmHg 74%
    13:00 -4°C° 0 mm 15 m/S 656 mmHg 73%
    14:00 -4°C° 0 mm 14 m/S 656 mmHg 73%
    15:00 -4°C° 0 mm 14 m/S 657 mmHg 72%
    16:00 -5°C° 0 mm 13 m/S 657 mmHg 75%
    17:00 -5°C° 0 mm 12 m/S 657 mmHg 79%
    18:00 -6°C° 0 mm 11 m/S 657 mmHg 82%
    19:00 -6°C° 0 mm 11 m/S 658 mmHg 83%
    20:00 -5°C° 0 mm 10 m/S 658 mmHg 85%
    21:00 -5°C° 0 mm 10 m/S 659 mmHg 86%
    22:00 -5°C° 0 mm 9 m/S 659 mmHg 87%
    23:00 -4°C° 0 mm 7 m/S 659 mmHg 89%

    Morgen, 25 Januar, Freitag

    Zeit Temperatur Niederschläge Wind Luftdruck Luftfeuchtigkeit
    00:00 -4°C° 0 mm 6 m/S 660 mmHg 90%
    01:00 -4°C° 0 mm 6 m/S 660 mmHg 91%
    02:00 -4°C° 0 mm 6 m/S 660 mmHg 92%
    03:00 -4°C° 0 mm 6 m/S 661 mmHg 92%
    04:00 -4°C° 0.1 mm 7 m/S 661 mmHg 92%
    05:00 -5°C° 0.1 mm 8 m/S 661 mmHg 91%
    06:00 -5°C° 0.1 mm 9 m/S 662 mmHg 91%
    07:00 -5°C° 0.1 mm 9 m/S 662 mmHg 88%
    08:00 -4°C° 0.1 mm 9 m/S 663 mmHg 86%
    09:00 -4°C° 0.1 mm 8 m/S 663 mmHg 83%
    10:00 -3°C° 0.1 mm 9 m/S 663 mmHg 79%
    11:00 -3°C° 0.1 mm 9 m/S 664 mmHg 74%
    12:00 -2°C° 0.1 mm 10 m/S 664 mmHg 69%
    13:00 -2°C° 0.1 mm 10 m/S 664 mmHg 70%
    14:00 -2°C° 0.1 mm 10 m/S 664 mmHg 71%
    15:00 -2°C° 0.1 mm 11 m/S 663 mmHg 72%
    16:00 -1°C° 0 mm 9 m/S 663 mmHg 78%
    17:00 -2°C° 0 mm 7 m/S 663 mmHg 83%
    18:00 -2°C° 0 mm 5 m/S 663 mmHg 88%
    19:00 -2°C° 0.1 mm 5 m/S 664 mmHg 89%
    20:00 -2°C° 0.1 mm 5 m/S 664 mmHg 90%
    21:00 -2°C° 0.1 mm 4 m/S 664 mmHg 92%
    22:00 -1°C° 0.1 mm 5 m/S 664 mmHg 92%
    23:00 -2°C° 0.1 mm 6 m/S 665 mmHg 93%

    übermorgen, 26 Januar, Samstag

    Zeit Temperatur Niederschläge Wind Luftdruck Luftfeuchtigkeit
    00:00 -1°C° 0.1 mm 6 m/S 665 mmHg 93%
    01:00 -1°C° 0.1 mm 8 m/S 665 mmHg 94%
    02:00 -3°C° 0.1 mm 9 m/S 665 mmHg 94%
    03:00 -3°C° 0.1 mm 10 m/S 665 mmHg 95%
    04:00 -3°C° 0.1 mm 10 m/S 665 mmHg 94%
    05:00 -3°C° 0.1 mm 9 m/S 666 mmHg 94%
    06:00 -3°C° 0.1 mm 9 m/S 666 mmHg 94%
    07:00 -3°C° 0.1 mm 9 m/S 667 mmHg 91%
    08:00 -3°C° 0.1 mm 9 m/S 667 mmHg 88%
    09:00 -3°C° 0.1 mm 9 m/S 668 mmHg 85%
    10:00 -1°C° 0 mm 9 m/S 668 mmHg 82%
    11:00 0°C° 0 mm 9 m/S 668 mmHg 80%
    12:00 +1°C° 0 mm 8 m/S 669 mmHg 78%
    13:00 +1°C° 0 mm 8 m/S 669 mmHg 78%
    14:00 +2°C° 0 mm 7 m/S 669 mmHg 77%
    15:00 +2°C° 0 mm 6 m/S 668 mmHg 77%
    16:00 +1°C° 0 mm 6 m/S 669 mmHg 81%
    17:00 +1°C° 0 mm 5 m/S 669 mmHg 84%
    18:00 +1°C° 0 mm 5 m/S 669 mmHg 87%
    19:00 +1°C° 0 mm 4 m/S 669 mmHg 88%
    20:00 +2°C° 0 mm 3 m/S 670 mmHg 90%
    21:00 +2°C° 0 mm 3 m/S 670 mmHg 92%
    22:00 +3°C° 0 mm 2 m/S 670 mmHg 92%
    23:00 +3°C° 0 mm 2 m/S 670 mmHg 93%

    27 Januar, Sonntag

    Zeit Temperatur Niederschläge Wind Luftdruck Luftfeuchtigkeit
    00:00 +3°C° 0 mm 2 m/S 670 mmHg 93%
    01:00 +2°C° 0 mm 2 m/S 669 mmHg 93%
    02:00 +3°C° 0 mm 1 m/S 669 mmHg 92%
    03:00 +2°C° 0 mm 1 m/S 668 mmHg 91%
    04:00 +2°C° 0 mm 1 m/S 668 mmHg 88%
    05:00 +1°C° 0 mm 2 m/S 668 mmHg 85%
    06:00 +1°C° 0 mm 2 m/S 668 mmHg 81%
    07:00 +3°C° 0 mm 2 m/S 669 mmHg 75%
    08:00 +4°C° 0 mm 2 m/S 669 mmHg 69%
    09:00 +5°C° 0 mm 3 m/S 670 mmHg 63%
    10:00 +7°C° 0 mm 3 m/S 670 mmHg 59%
    11:00 +7°C° 0 mm 4 m/S 669 mmHg 56%
    12:00 +8°C° 0 mm 5 m/S 669 mmHg 53%
    13:00 +8°C° 0 mm 5 m/S 668 mmHg 53%
    14:00 +8°C° 0 mm 5 m/S 668 mmHg 54%
    15:00 +8°C° 0 mm 5 m/S 667 mmHg 55%
    16:00 +6°C° 0 mm 4 m/S 667 mmHg 59%
    17:00 +5°C° 0 mm 4 m/S 666 mmHg 64%
    18:00 +3°C° 0 mm 3 m/S 666 mmHg 69%
    19:00 +3°C° 0 mm 3 m/S 666 mmHg 67%
    20:00 +4°C° 0 mm 3 m/S 666 mmHg 65%
    21:00 +4°C° 0 mm 3 m/S 666 mmHg 63%
    22:00 +3°C° 0 mm 3 m/S 666 mmHg 65%
    23:00 +3°C° 0 mm 3 m/S 666 mmHg 66%

    28 Januar, Montag

    Zeit Temperatur Niederschläge Wind Luftdruck Luftfeuchtigkeit
    00:00 +3°C° 0 mm 3 m/S 665 mmHg 67%
    01:00 +3°C° 0 mm 3 m/S 665 mmHg 69%
    02:00 +4°C° 0 mm 2 m/S 665 mmHg 72%
    03:00 +4°C° 0 mm 2 m/S 665 mmHg 74%
    04:00 +3°C° 0 mm 2 m/S 665 mmHg 78%
    05:00 +3°C° 0 mm 2 m/S 665 mmHg 83%
    06:00 +3°C° 0 mm 1 m/S 665 mmHg 88%
    07:00 +3°C° 0 mm 2 m/S 665 mmHg 82%
    08:00 +3°C° 0 mm 3 m/S 666 mmHg 75%
    09:00 +4°C° 0 mm 4 m/S 666 mmHg 69%
    10:00 +3°C° 0 mm 5 m/S 666 mmHg 67%
    11:00 +3°C° 0 mm 7 m/S 666 mmHg 64%
    12:00 +2°C° 0 mm 8 m/S 666 mmHg 62%
    13:00 +3°C° 0.1 mm 7 m/S 666 mmHg 62%
    14:00 +3°C° 0.1 mm 7 m/S 666 mmHg 62%
    15:00 +3°C° 0.1 mm 7 m/S 665 mmHg 62%
    16:00 +2°C° 0 mm 6 m/S 665 mmHg 67%
    17:00 +1°C° 0 mm 5 m/S 665 mmHg 71%
    18:00 0°C° 0 mm 4 m/S 666 mmHg 75%
    19:00 +1°C° 0 mm 3 m/S 666 mmHg 77%
    20:00 0°C° 0 mm 3 m/S 666 mmHg 78%
    21:00 +1°C° 0 mm 2 m/S 666 mmHg 80%
    22:00 0°C° 0.2 mm 3 m/S 666 mmHg 81%
    23:00 0°C° 0.2 mm 3 m/S 665 mmHg 81%

    29 Januar, Dienstag

    Zeit Temperatur Niederschläge Wind Luftdruck Luftfeuchtigkeit
    00:00 0°C° 0.2 mm 4 m/S 665 mmHg 82%
    01:00 -1°C° 0.1 mm 4 m/S 665 mmHg 84%
    02:00 -1°C° 0.1 mm 5 m/S 665 mmHg 86%
    03:00 -1°C° 0.1 mm 5 m/S 665 mmHg 88%
    04:00 -1°C° 0 mm 5 m/S 665 mmHg 90%
    05:00 -1°C° 0 mm 4 m/S 665 mmHg 92%
    06:00 -1°C° 0 mm 4 m/S 666 mmHg 93%
    07:00 0°C° 0 mm 5 m/S 666 mmHg 84%
    08:00 +1°C° 0 mm 6 m/S 667 mmHg 75%
    09:00 +2°C° 0 mm 7 m/S 668 mmHg 66%
    10:00 +1°C° 0.1 mm 9 m/S 668 mmHg 65%
    11:00 +2°C° 0.1 mm 10 m/S 668 mmHg 65%
    12:00 +3°C° 0.1 mm 12 m/S 668 mmHg 65%
    13:00 +2°C° 0 mm 12 m/S 668 mmHg 68%
    14:00 +2°C° 0 mm 11 m/S 668 mmHg 71%
    15:00 +2°C° 0 mm 11 m/S 668 mmHg 74%
    16:00 +1°C° 0.1 mm 9 m/S 668 mmHg 78%
    17:00 +2°C° 0.1 mm 7 m/S 669 mmHg 82%
    18:00 +1°C° 0.1 mm 5 m/S 669 mmHg 86%
    19:00 +1°C° 0.1 mm 4 m/S 669 mmHg 86%
    20:00 +2°C° 0.1 mm 3 m/S 670 mmHg 86%
    21:00 +3°C° 0.1 mm 2 m/S 670 mmHg 87%
    22:00 +3°C° 0 mm 2 m/S 670 mmHg 87%
    23:00 +2°C° 0 mm 2 m/S 670 mmHg 88%
    Mehr zeigen